OBJECT A, 61869

Orbit data source: Space-Track

You're viewing an Uncataloged Satellite

Recently launched and/or uncataloged satellites may have evolving metadata. Metadata may include but not limited to: Owner, Maufacturer, Bus, Motor, and Mission.

OBJECT A, 61869 is a satellite owned by Hangtian Hongtu (CN) in SSO that was launched on Sat, 09 Nov 2024 UTC via a CHANG ZHENG 2C launch vehicle from the Jiuquan Satellite Launch Center, China (JSC). Unknown objects in Earth's orbit typically refer to objects detected orbiting the Earth but have not yet been identified or cataloged. These objects could be anything from previously untracked satellites, spent rocket stages, debris from satellite collisions, or even natural meteoroids temporarily captured by Earth's gravity.

Loading next visibility...
OBJECT A details
Identifier
61869, 2024-203A
Orbit
SSO
Last TLE update13 hours ago
Origin
Flag of CNHangtian Hongtu (CN / PRC)
ManufacturerYinhe
MissionOperational spacecraft
Bus & MotorPIESAT, Unknown motor
Mass320 kg wet, 320 kg dry
Launch date (UTC)
2024-11-09 (2 months ago)
Launch vehicle
CHANG ZHENG 2C
Launch site
Jiuquan Satellite Launch Center, China (JSC)
Object typeUnknown
Shape & HBRUnknown
Radar Cross SectionLarge (>1 m²)

Expand to show TLE details & history

TLE from 13 hours ago
0 OBJECT A
1 61869U 24203A   24361.05084705  .00017785  00000-0  95219-3 0  9993
2 61869  97.4886  65.0919 0017250  57.7393 302.5508 15.14956586  7092
Epoch: 2024-12-26T01:13Z
Definitive object data (Epoch: 2024-12-26T01:13:13.185Z)
Latitude0.00001°
Longitude-48.24884°
Altitude517.801 km
Speed7.608 km/s
True Right ascension04h 20m 22s
True Declination0° 00' 00"
Sunlit
Object was in full shadow at TLE epoch
Visualization TLE readout
Latitude-9.79638°
Longitude-46.43682°
Altitude520.991 km
Speed7.605 km/s
Apparent Right ascension03h 07m 13s
Apparent Declination-26° 06' 04"
Sunlit
Object is in full shadow
Visualization observer readout
Local Sidereal Time13:13:16
Azimuth291.535° WNW
Elevation-62.583°
Doppler factor1
Orbital elements
Apogee altitude529.982 km
Perigee altitude506.19 km
Semi-major axis6,896.223 km
Eccentricity0.001725
Inclination97.4886°
RAAN65.0919°
Arg. of periapsis57.7393°
True anomaly302.38399°
Mean anomaly302.5508°
Eccentric anomaly302.46741°
Mean motion3.78989 °/min
BSTAR0.00095219
Orbital period94.99 mins
Loading maneuver chart data...
Loading historical data...
Loading historical data...
Loading historical data...
Loading historical data...
Loading historical data...
Loading historical data...
Loading historical data...
Other satellites on launch #203 in the year 2024 (2024-11-09 UTC)

OBJECT A Visibility forecast

Observer location: undefined°, undefined

Span
Click to sort rows by Start time (UTC) header in descending order
Start Az.
Max El. time (UTC)
Max El. Az.
Max El.
End time (UTC)
End Az.
7 mins2024-12-26 17:37:31.475Z2.366° NNE2024-12-26 17:40:31.475Z313.616° NW38.488°2024-12-26 17:44:31.475Z206.944° SW
5 mins2024-12-27 04:18:31.475Z147.906° SSE2024-12-27 04:20:31.475Z101.304° ESE38.824°2024-12-27 04:23:31.475Z0.527° NNE
|